Manchester, NH

8:12 PM EDT on July 30, 2016 (GMT -0400)
Manchester

Weather History for KMHT - January, 2014

Change the Weather History Date:

Friday, January 17, 2014

  Actual Average Record
Temperature  
Mean Temperature 36 °F 24 °F  
Max Temperature 43 °F 33 °F 52 °F (1949)
Min Temperature 28 °F 15 °F -6 °F (2009)
Degree Days  
Heating Degree Days 28    
Cooling Degree Days 0    
Moisture  
Dew Point 28 °F    
Average Humidity 76    
Maximum Humidity 100    
Minimum Humidity 38    
Precipitation  
Precipitation 0.00 in 0.09 in 0.60 in (1991)
Month to date precipitation 1.78  
Year to date precipitation 1.78  
Sea Level Pressure  
Sea Level Pressure 29.95 in    
Wind  
Wind Speed 2 mph (SSW)    
Max Wind Speed 10 mph    
Max Gust Speed -    
Visibility 6 miles    
Events Fog , Rain    
T = Trace of Precipitation, MM = Missing Value Source: NWS Daily Summary

Daily Weather History Graph

Daily Weather History Graph

Search for Another Location

Airport or City:

Trip Planner

Search our weather history database for the weather conditions in past years. The results will help you decide how hot, cold, wet, or windy it might be!

Date:

Astronomy

Jan. 17, 2014 Rise Set
Actual Time 7:12 AM EST 4:39 PM EST
Civil Twilight 6:41 AM EST 5:10 PM EST
Nautical Twilight 6:06 AM EST 5:45 PM EST
Astronomical Twilight 5:32 AM EST 6:19 PM EST
Moon 6:26 PM EST (1/17) 7:35 AM EST (1/17)
Length of Visible Light 10h 28m
Length of Day
9h 26m
Full, 98% of the Moon is Illuminated
Jan 17
Full
Jan 24
Last Quarter
Jan 30
New
Feb 6
First Quarter
Feb 14
Full

Hourly Weather History & Observations

Time (EST) Temp. Windchill Dew Point Humidity Pressure Visibility Wind Dir Wind Speed Gust Speed Precip Events Conditions
12:53 AM 35.1 °F - 33.1 °F 92% 29.94 in 1.0 mi Calm Calm - N/A   Mostly Cloudy
1:53 AM 34.0 °F - 33.1 °F 96% 29.96 in 0.8 mi Calm Calm - 0.00 in Rain Light Rain
2:53 AM 34.0 °F - 33.1 °F 96% 29.94 in 0.5 mi Calm Calm - 0.00 in Fog Fog
3:19 AM 34.0 °F - 33.1 °F 96% 29.89 in 0.2 mi Calm Calm - N/A Fog Fog
3:53 AM 34.0 °F - 33.1 °F 96% 29.93 in 0.5 mi Calm Calm - N/A Fog Fog
4:22 AM 34.0 °F - 33.1 °F 96% 29.88 in 0.2 mi Calm Calm - N/A Fog Fog
4:53 AM 34.0 °F - 34.0 °F 100% 29.94 in 0.5 mi Calm Calm - N/A Fog Fog
5:30 AM 34.0 °F 31.0 °F 33.1 °F 96% 29.88 in 0.2 mi SSW 3.5 mph - N/A Fog Fog
5:53 AM 34.0 °F 31.0 °F 33.1 °F 96% 29.95 in 0.2 mi SSW 3.5 mph - N/A Fog Fog
6:53 AM 34.0 °F 28.0 °F 33.1 °F 96% 29.96 in 0.8 mi SSW 6.9 mph - N/A   Overcast
7:21 AM 33.1 °F 28.7 °F 32.0 °F 96% 29.92 in 2.5 mi SW 4.6 mph - N/A   Overcast
8:53 AM 33.1 °F 30.0 °F 30.9 °F 92% 29.99 in 3.0 mi WSW 3.5 mph - N/A   Scattered Clouds
9:53 AM 35.1 °F 31.0 °F 28.9 °F 78% 30.00 in 10.0 mi West 4.6 mph - N/A   Scattered Clouds
10:53 AM 37.9 °F 32.7 °F 28.0 °F 68% 29.98 in 10.0 mi South 6.9 mph - N/A   Partly Cloudy
11:53 AM 39.0 °F 34.0 °F 27.0 °F 62% 29.95 in 10.0 mi Variable 6.9 mph - N/A   Scattered Clouds
12:53 PM 41.0 °F 35.8 °F 23.0 °F 49% 29.93 in 10.0 mi South 8.1 mph - N/A   Partly Cloudy
1:53 PM 42.1 °F 36.1 °F 21.9 °F 45% 29.92 in 10.0 mi SSW 10.4 mph - N/A   Partly Cloudy
2:53 PM 43.0 °F 37.7 °F 19.9 °F 40% 29.93 in 10.0 mi South 9.2 mph - N/A   Partly Cloudy
3:53 PM 43.0 °F 38.2 °F 19.0 °F 38% 29.93 in 10.0 mi SSW 8.1 mph - N/A   Scattered Clouds
4:53 PM 41.0 °F 38.0 °F 19.9 °F 43% 29.95 in 10.0 mi SW 4.6 mph - N/A   Mostly Cloudy
5:53 PM 36.0 °F - 21.0 °F 55% 29.96 in 10.0 mi Calm Calm - N/A   Mostly Cloudy
6:53 PM 33.1 °F 28.7 °F 23.0 °F 66% 29.97 in 10.0 mi SE 4.6 mph - N/A   Mostly Cloudy
7:53 PM 33.1 °F 30.0 °F 21.9 °F 64% 29.97 in 10.0 mi South 3.5 mph - N/A   Mostly Cloudy
8:53 PM 30.9 °F 27.5 °F 23.0 °F 72% 29.98 in 10.0 mi SSE 3.5 mph - N/A   Mostly Cloudy
9:53 PM 32.0 °F - 23.0 °F 69% 29.98 in 10.0 mi Calm Calm - N/A   Mostly Cloudy
10:53 PM 30.0 °F - 24.1 °F 79% 29.97 in 10.0 mi Calm Calm - N/A   Mostly Cloudy
11:53 PM 28.9 °F - 24.1 °F 82% 29.96 in 10.0 mi Calm Calm - N/A   Overcast